Kuchera_Ratio
0.0 0.0 0.0 0.0 0.0 0.0 0.0 0.0 0.0 0.0 0.0 0.0 0.0 0.0 0.0 0.0 0.0 0.0 0.0 0.0 0.0 0.0 0.0 0.0 0.0 0.0 0.0 0.0 0.0 0.0 0.0 0.0 0.0 0.0 0.0 0.0 0.0 0.0 0.0 0.0 0.0 0.0 0.0 0.0 0.0 0.0 0.0
0.0 0.0 0.0 0.0 0.0 0.0 0.0 0.0 0.0 0.0 0.0 0.0 0.0 0.0 0.0 0.0 0.0 0.0 0.0 0.0 0.0 0.0 0.0 0.0 0.0 0.0 0.0 0.0 0.0 0.0 0.0 0.0 0.0 0.0 0.0 0.0 0.0 0.0 0.0 0.0 0.0 0.0 0.0 0.0 0.0 0.0 0.0
0.0 0.0 0.0 0.0 0.0 0.0 0.0 0.0 0.0 0.0 0.0 0.0 0.0 0.0 0.0 0.0 0.0 0.0 0.0 0.0 0.0 0.0 0.0 0.0 0.0 0.0 0.0 0.0 0.0 0.0 0.0 0.0 0.0 0.0 0.0 0.0 0.0 0.0 0.0 0.0 0.0 0.0 0.0 0.0 0.0 0.0 0.0
0.0 0.0 0.0 0.0 0.0 0.0 0.0 0.0 0.0 0.0 0.0 0.0 0.0 0.0 0.0 0.0 0.0 0.0 0.0 0.0 0.0 0.0 0.0 0.0 0.0 0.0 0.0 0.0 0.0 0.0 0.0 0.0 0.0 0.0 0.0 0.0 0.0 0.0 0.0 0.0 0.0 0.0 0.0 0.0 0.0 0.0 0.0
0.0 0.0 0.0 0.0 0.0 0.0 0.0 0.0 0.0 0.0 0.0 0.0 0.0 0.0 0.0 0.0 0.0 0.0 0.0 0.0 0.0 0.0 0.0 0.0 0.0 0.0 0.0 0.0 0.0 0.0 0.0 0.0 0.0 0.0 0.0 0.0 0.0 0.0 0.0 0.0 0.0 0.0 0.0 0.0 0.0 0.0 0.0
0.0 0.0 0.0 0.0 0.0 0.0 0.0 0.0 0.0 0.0 0.0 0.0 0.0 0.0 0.0 0.0 0.0 0.0 0.0 0.0 0.0 0.0 0.0 0.0 0.0 0.0 0.0 0.0 0.0 0.0 0.0 0.0 0.0 0.0 0.0 0.0 0.0 0.0 0.0 0.0 0.0 0.0 0.0 0.0 0.0 0.0 0.0
0.0 0.0 0.0 0.0 0.0 0.0 0.0 0.0 0.0 0.0 0.0 0.0 0.0 0.0 0.0 0.0 0.0 0.0 0.0 0.0 0.0 0.0 0.0 0.0 0.0 0.0 0.0 0.0 0.0 0.0 0.0 0.0 0.0 0.0 0.0 0.0 0.0 0.0 0.0 0.0 0.0 0.0 0.0 0.0 0.0 0.0 0.0
0.0 0.0 0.0 0.0 0.0 0.0 0.0 0.0 0.0 0.0 0.0 0.0 0.0 0.0 0.0 0.0 0.0 0.0 0.0 0.0 0.0 0.0 0.0 0.0 0.0 0.0 0.0 0.0 0.0 0.0 0.0 0.0 0.0 0.0 0.0 0.0 0.0 0.0 0.0 0.0 0.0 0.0 0.0 0.0 0.0 0.0 0.0
0.0 0.0 0.0 0.0 0.0 0.0 0.0 0.0 0.0 0.0 0.0 0.0 0.0 0.0 0.0 0.0 0.0 0.0 0.0 0.0 0.0 0.0 0.0 0.0 0.0 0.0 0.0 0.0 0.0 0.0 0.0 0.0 0.0 0.0 0.0 0.0 0.0 0.0 0.0 0.0 0.0 0.0 0.0 0.0 0.0 0.0 0.0
0.0 0.0 0.0 0.0 0.0 0.0 0.0 0.0 0.0 0.0 0.0 0.0 0.0 0.0 0.0 0.0 0.0 0.0 0.0 0.0 0.0 0.0 0.0 0.0 0.0 0.0 0.0 0.0 0.0 0.0 0.0 0.0 0.0 0.0 0.0 0.0 0.0 0.0 0.0 0.0 0.0 0.9 0.0 0.0 0.0 0.0 6.0
0.0 0.0 0.0 0.0 0.0 0.0 0.0 0.0 0.0 0.0 0.0 0.0 0.0 0.0 0.0 0.0 0.0 0.0 0.0 0.0 0.0 0.0 3.5 0.0 0.0 0.0 0.0 0.0 0.0 0.0 0.0 0.0 0.0 0.0 0.0 0.0 0.0 0.0 0.0 0.0 0.0 0.0 0.0 0.0 0.0 0.0 0.8
0.0 0.0 0.0 0.0 0.0 0.0 0.0 0.0 0.0 0.0 0.0 0.0 0.0 0.0 0.0 0.0 0.0 0.0 0.0 0.0 0.0 0.0 7.1 0.7 0.0 0.0 0.0 0.0 0.0 0.0 0.0 0.0 0.0 0.0 0.0 0.0 0.0 0.0 0.0 0.0 0.0 0.0 0.0 0.0 0.0 0.8 14.0
0.0 0.0 0.0 0.0 0.0 0.0 0.0 0.0 0.0 0.0 0.0 0.0 0.0 0.0 0.0 0.0 0.0 0.0 0.0 0.0 0.0 1.4 0.0 0.9 2.6 0.0 0.4 2.7 0.0 0.0 0.9 4.2 7.2 11.6 4.9 1.2 0.0 0.0 0.0 2.0 0.0 0.0 3.8 13.6 13.8 14.4 13.2
0.0 0.0 0.0 0.0 0.0 0.0 0.0 0.0 0.0 0.0 0.0 0.0 0.0 0.0 0.0 0.0 0.0 0.0 0.0 0.0 2.3 4.1 4.5 0.0 0.6 0.3 5.1 4.3 2.2 1.2 1.9 6.1 5.5 8.2 12.2 13.4 13.6 4.1 0.0 3.0 7.4 5.7 5.3 13.5 19.4 16.2 13.1
0.0 0.0 0.0 0.0 0.0 0.0 0.0 0.0 0.0 0.0 0.0 0.0 0.0 0.0 0.0 0.0 0.0 0.0 0.0 1.3 6.7 6.3 4.3 5.8 1.8 6.1 6.3 5.3 5.9 4.2 6.4 10.7 10.2 8.3 15.2 15.0 13.8 2.1 0.9 0.9 1.6 6.0 10.8 4.6 14.6 11.2 13.8
0.0 0.0 0.0 0.0 0.0 0.0 0.0 0.0 0.0 0.0 0.0 0.0 0.0 0.0 0.0 0.0 0.0 0.0 0.0 6.0 5.6 3.0 3.9 4.0 10.8 7.1 12.0 11.1 11.2 10.4 9.2 9.4 11.5 7.2 5.4 12.4 18.6 8.2 3.9 2.0 0.0 4.0 2.3 13.9 11.8 18.8 18.2
0.0 0.0 0.0 0.0 0.0 0.0 0.0 0.0 0.0 0.0 0.0 0.0 0.0 0.0 0.0 0.0 0.0 0.0 2.8 6.1 5.0 1.6 2.0 6.4 9.4 10.9 12.1 13.6 12.6 12.6 12.3 9.8 8.1 9.3 5.8 9.8 13.9 14.3 8.7 11.4 12.7 11.3 12.7 12.3 11.2 13.1 17.0
0.0 0.0 0.0 0.0 0.0 0.0 0.0 0.0 0.0 0.0 0.0 0.0 0.0 0.0 0.0 0.0 0.0 0.0 3.5 4.8 2.9 4.9 1.1 4.8 5.8 9.8 12.7 12.4 13.7 13.3 13.4 10.7 4.7 7.4 13.7 9.5 14.4 18.2 14.9 6.2 4.2 9.4 15.2 14.2 17.5 18.6 15.0
0.0 0.0 0.0 0.0 0.0 0.0 0.0 0.0 0.0 0.0 0.0 0.0 0.0 0.0 0.0 0.0 0.0 2.3 3.6 6.6 5.6 6.6 7.2 7.6 9.8 8.7 9.4 13.0 15.9 13.0 12.3 5.0 6.0 9.4 13.1 13.0 16.0 20.5 17.3 12.8 13.8 16.4 14.7 13.6 13.9 13.8 16.8
0.0 0.0 0.0 0.0 0.0 0.0 0.0 0.0 0.0 0.0 0.0 0.0 0.0 0.0 0.0 0.0 0.0 3.1 7.8 10.3 10.8 4.5 7.7 6.9 9.1 8.2 12.1 13.7 12.2 14.5 13.6 8.9 6.4 8.5 6.4 8.7 14.5 17.7 21.8 18.5 14.4 16.7 15.1 13.9 14.8 18.3 17.8
0.0 0.0 0.0 0.0 0.0 0.0 0.0 0.0 0.0 0.0 0.0 0.0 0.0 4.7 6.2 5.7 5.9 6.1 6.6 9.7 12.6 13.1 7.1 6.0 10.8 11.6 13.7 16.4 14.8 14.9 12.7 12.0 8.2 8.6 9.4 12.3 17.9 16.0 15.5 15.2 15.8 16.3 16.7 16.8 17.4 16.7 19.6
0.0 0.0 0.0 0.0 0.0 0.0 0.0 0.0 0.0 0.0 0.0 0.0 0.0 0.0 2.5 5.8 7.9 7.7 9.5 12.7 13.4 12.7 12.5 13.1 13.7 12.3 12.1 15.4 14.5 16.7 13.9 13.4 14.7 12.3 13.4 11.6 17.5 15.4 17.1 14.9 15.0 18.9 17.2 17.2 16.4 16.9 16.1
0.0 0.0 0.0 0.0 0.0 0.0 0.0 0.0 0.0 0.0 0.0 0.0 0.9 0.6 0.0 8.3 9.2 8.1 11.7 12.6 12.8 11.2 9.2 8.5 12.0 12.7 13.3 12.2 9.8 8.6 8.1 9.9 12.1 14.4 14.7 14.5 16.1 17.7 19.9 15.2 16.9 20.8 19.7 18.2 17.1 16.6 16.8
0.0 0.0 0.0 0.0 0.0 0.0 0.0 0.0 0.0 0.0 0.0 0.0 1.7 0.0 0.9 10.6 7.4 10.2 11.3 11.0 12.3 12.3 13.5 9.1 8.6 12.4 7.3 3.2 3.5 5.4 8.8 11.2 12.3 12.2 11.7 15.3 15.8 16.2 19.7 16.8 24.6 19.4 15.3 15.3 16.9 17.3 17.1
0.0 0.0 0.0 0.0 0.0 0.0 0.0 0.0 0.0 0.0 0.0 0.0 0.7 0.0 1.5 10.6 8.2 10.8 11.5 12.2 10.7 10.1 12.3 12.2 7.8 5.1 4.1 7.1 12.5 14.6 14.0 13.6 12.8 10.3 11.6 11.2 15.3 18.4 21.0 20.7 18.8 19.2 17.3 18.1 19.3 18.7 16.7
0.0 0.0 0.0 0.0 0.0 0.0 0.0 0.0 0.0 0.0 0.0 0.0 0.0 0.0 2.8 8.5 11.1 9.0 11.4 12.1 12.8 13.1 11.8 11.4 3.8 3.9 5.1 10.4 14.0 19.3 20.5 18.3 18.3 16.1 10.2 12.1 13.0 17.1 19.1 23.1 24.9 20.9 16.8 13.9 14.2 21.2 15.9
0.0 0.0 0.0 0.0 0.0 0.0 0.0 0.0 0.0 0.0 0.0 0.0 0.0 0.0 3.0 10.6 7.7 7.3 10.4 12.0 9.4 12.2 14.1 12.5 11.4 10.4 6.1 13.5 16.3 18.3 18.8 16.3 20.0 20.1 19.3 17.8 17.7 20.1 20.2 21.7 20.6 18.0 15.4 13.2 22.2 21.6 16.2
0.0 0.0 0.0 0.0 0.0 0.0 0.0 0.0 0.0 0.0 0.0 0.0 0.0 0.0 1.5 10.2 8.1 5.1 5.0 9.2 9.3 9.9 13.8 10.5 12.3 11.2 12.5 16.2 16.7 17.0 17.7 17.1 18.9 18.2 19.5 20.5 21.6 20.9 19.9 22.1 25.0 15.5 15.9 21.5 19.0 16.4 16.3
0.0 0.0 0.0 0.0 0.0 0.0 0.0 0.0 0.0 0.0 0.0 0.0 0.0 0.0 0.0 5.6 6.8 3.6 2.6 2.4 3.4 4.2 7.7 11.1 12.7 13.5 11.9 14.8 15.0 15.4 16.9 16.5 19.0 20.5 16.2 20.7 20.2 22.0 20.9 19.7 14.5 14.3 15.7 14.4 14.9 17.6 16.7